GFSSGP_con_mucape_276.txt.gz
CAPE
1683 1431 1441 1467 25 28 92 161 247 78 29 90 26 21 25 63 70 77 144 199 376 786 1121 1505 2377 2272 2261 2503 2497 2196 2192 2154 2647 2654 2490 2083 2101 2430 2285 2235 2380 2177 2180 1869 2138 2061 1927 2056 1999
2034 1956 1878 1645 0 14 96 234 313 468 382 249 460 227 104 67 64 137 195 336 621 971 1219 1548 2347 2451 2306 2247 2441 2392 1948 2135 2271 2156 2228 2031 2252 2417 2497 2552 2388 2279 2107 2104 2069 2100 2240 2102 2235
2312 2244 1627 57 30 62 191 570 687 644 415 706 782 369 105 69 169 160 240 552 910 1033 1195 1626 2438 2374 2133 2297 2299 2289 2066 1994 2064 2053 2239 2261 2362 2291 2343 2238 2397 2189 1883 1778 2251 2150 2155 1848 2005
2249 2188 629 73 120 176 473 522 599 583 659 695 223 84 147 169 138 143 364 685 1104 1176 1352 2015 1937 1619 1630 2023 2194 2111 2175 2165 2116 2032 2029 2159 2240 2256 2433 1919 1755 2144 1876 2012 2171 2192 2310 1900 1871
1703 840 49 118 297 628 770 635 653 838 814 642 380 513 485 421 132 203 402 834 1193 1263 1608 1711 2256 1783 1527 1682 1980 1953 1964 2107 2129 2025 2054 2167 2102 2206 2367 1755 1230 2052 2216 2138 2095 2145 1966 1757 1682
430 26 28 121 349 666 831 715 966 974 684 477 523 557 473 114 141 252 512 966 1272 1547 1793 1492 1672 1601 1898 2112 2154 1958 1925 2021 2062 1976 2032 2441 2028 2036 2211 1731 1390 1193 1506 1890 2122 1503 1130 1241 1258
153 0 33 66 166 868 928 865 820 697 666 495 702 637 429 75 180 456 856 1344 1373 1251 1604 1303 1176 1194 1627 2295 2254 2005 1950 1831 1723 2296 2116 2010 1883 1875 1979 2006 1786 1328 963 1325 1551 1334 1579 1659 1814
294 32 39 78 62 281 794 859 723 824 654 532 546 466 376 419 555 1328 1335 1313 1188 1133 1474 1317 1508 2034 2049 2013 2254 2104 1897 1768 2176 1922 2132 1986 1815 1928 2006 2085 1901 2027 2168 1811 1582 1520 1863 1812 1571
29 21 83 109 163 591 960 784 937 841 620 923 597 786 614 830 1119 1343 1402 1245 1179 1125 1465 1698 1865 1908 1730 1758 1653 1928 1711 1682 2138 1516 1601 1604 955 829 1110 1246 1599 1514 1353 1453 1427 1478 1382 1255 1296
31 44 71 161 231 936 1126 977 847 927 826 793 813 885 914 839 995 1208 1162 1119 936 956 1378 1631 1731 1720 1620 1851 1557 1501 1289 1339 1472 1040 788 455 205 74 73 439 1114 1055 995 1209 1216 1060 1080 1166 910
33 49 29 143 822 1089 1018 848 747 760 526 412 789 910 848 888 956 911 905 865 722 837 1191 1450 1460 1586 1550 1757 1313 1413 1482 1402 1284 251 163 108 12 4 7 58 132 170 266 291 337 404 538 625 544
33 34 36 780 1046 1070 1142 765 703 740 375 396 669 812 806 846 922 893 890 839 659 814 829 1160 1251 1310 1309 1371 1170 1286 1314 1256 1167 449 138 73 10 4 1 3 37 80 80 65 0 19 17 0 48
29 42 83 537 1028 1065 1138 1018 1041 638 628 525 536 686 753 733 742 764 742 745 599 583 718 761 1022 1220 1044 905 818 742 737 770 855 484 120 27 15 12 4 7 10 2 0 0 1 0 0 18 220
21 41 180 605 966 1173 1243 1163 946 748 829 735 584 517 515 521 590 659 627 578 674 567 642 586 715 921 945 932 785 497 618 607 547 598 260 73 16 30 32 33 25 6 4 3 4 4 112 166 166
0 24 160 562 910 1105 1028 945 993 760 959 907 752 581 544 491 458 434 362 252 449 510 570 591 627 726 776 791 824 613 230 388 433 314 215 152 89 52 15 7 26 39 22 12 69 123 171 167 176
27 20 52 332 670 1063 332 407 1004 836 896 896 850 727 706 599 522 445 348 253 191 208 477 458 521 652 745 710 660 680 162 244 167 107 59 85 188 182 116 16 21 23 50 71 148 169 167 180 203
55 32 19 181 427 847 646 403 1013 925 843 815 848 825 813 751 681 702 596 429 303 278 256 276 357 510 592 651 625 610 416 278 235 129 119 98 143 234 185 69 72 40 49 128 161 270 168 192 216
0 0 0 108 191 530 661 261 1009 911 779 748 796 831 839 846 879 843 812 683 528 444 381 309 339 317 425 475 515 557 542 482 429 241 195 184 160 184 221 197 199 224 177 146 187 203 218 347 270
0 0 0 0 0 373 377 322 910 942 778 660 733 823 883 860 887 923 859 848 701 461 411 368 313 297 366 423 364 332 313 355 327 257 260 390 361 258 288 321 353 333 378 416 319 236 429 493 272
0 0 2 7 2 239 265 381 806 948 800 720 701 761 804 747 765 782 837 795 730 584 496 419 364 342 438 418 364 326 357 453 466 526 628 564 377 409 575 516 645 449 402 522 497 500 762 331 184
0 1 7 1 0 125 164 239 736 795 795 734 702 731 746 761 705 587 571 704 718 717 523 531 433 373 375 445 508 564 673 813 960 975 1072 1087 820 662 615 693 675 464 461 543 628 649 654 515 323
1 7 0 0 0 4 24 3 231 640 740 760 716 703 697 675 637 651 583 535 627 689 570 586 627 510 422 420 470 768 864 869 934 1541 1813 1760 1663 1265 1044 866 747 622 427 629 536 719 820 694 622
16 4 1 0 0 0 28 0 0 287 628 748 760 789 748 777 483 518 242 226 496 582 580 601 622 447 550 410 462 544 858 1076 1840 2030 1942 1519 1090 983 1022 1180 1328 1174 971 791 506 530 863 816 716
22 1 0 0 0 0 0 0 4 328 341 536 687 678 714 725 615 329 59 182 521 923 662 738 1088 988 1019 646 634 767 1288 1455 2499 1872 1690 1405 1194 1022 1194 1092 1209 1247 1054 909 617 617 820 777 646
23 10 2 0 0 0 0 0 6 63 268 361 440 642 591 553 557 356 194 74 241 666 713 692 676 568 403 606 245 725 1691 2813 2195 1716 1462 875 782 778 771 932 1033 1101 1148 1123 941 746 741 697 742
32 22 2 0 0 0 1 0 37 36 287 477 719 660 583 526 452 407 257 195 312 479 759 517 340 202 54 279 2 895 2014 1969 1040 968 674 519 579 679 737 762 642 937 1064 1201 1191 1166 1303 1488 1285
16 19 8 0 1 2 8 148 183 106 457 475 746 807 639 556 518 392 427 247 233 165 305 250 110 4 20 41 299 805 1392 1192 1091 947 673 542 486 494 341 434 483 530 589 669 682 816 947 1161 1165
30 22 37 9 7 17 96 107 134 117 311 421 488 588 655 624 476 317 425 353 248 92 101 153 77 42 56 232 237 627 644 455 413 439 496 483 517 516 514 503 459 517 538 568 620 580 555 493 647
25 17 38 26 35 11 28 27 154 159 372 397 480 577 639 682 649 723 250 286 160 96 102 120 47 0 7 47 53 214 200 185 190 186 83 85 62 70 62 123 432 148 209 515 659 516 567 582 571
0 16 28 30 13 26 19 17 262 430 578 592 697 765 895 874 896 658 423 401 282 126 161 47 1 18 13 40 125 175 142 134 131 158 198 90 0 0 0 0 0 0 0 0 0 0 228 512 450

GFSSGP_con_mucape_279.txt.gz
CAPE
1597 1208 1159 1539 410 200 156 304 47 29 34 60 50 74 165 144 153 450 178 305 759 684 683 1424 2158 2378 1882 2183 2596 2665 2554 2395 2843 2810 2532 2104 2248 2290 2242 2140 2007 1901 2104 2157 2055 1818 1978 1972 2272
1951 1260 1680 1236 165 0 307 549 318 696 183 135 360 212 136 165 139 203 425 659 879 968 1105 1556 2525 2659 1986 2021 2250 2477 1902 1926 2204 2291 2146 2081 2077 2096 1905 2311 2166 2142 2093 2111 2040 2068 2106 2069 2048
2139 1967 1764 318 174 100 335 779 612 244 286 547 469 140 80 137 239 315 463 861 1185 1380 1405 1480 2023 2796 2169 2205 2005 2187 2129 2072 2089 2137 2107 2121 1967 2025 2325 2255 2236 2180 2103 2018 1974 2036 2012 2156 1926
2312 2247 166 249 310 350 602 770 554 690 617 543 204 225 145 169 241 314 795 986 1242 1477 1421 1771 2114 2293 2282 2326 2196 2022 1935 1987 2045 2188 2214 2281 2195 2195 2007 2341 2121 1912 1834 2148 2125 1928 1891 1873 1782
1907 409 225 314 538 811 793 795 847 994 857 362 238 402 230 208 229 657 971 1107 1263 1501 1707 1416 2344 1870 2067 2188 2095 2135 2042 2020 2033 2046 2195 2226 2209 2115 1999 1506 2098 1833 2050 2204 2188 2207 1953 1800 1693
397 0 127 266 446 957 993 804 1169 975 748 482 460 457 518 323 476 740 970 1239 1396 1494 1597 1391 1688 1661 1620 1847 1995 1915 2047 2113 2069 2018 2104 2341 2142 2129 2041 1318 1711 2342 2208 2138 1985 1779 1733 1660 1566
310 141 40 145 499 1060 1171 1050 989 751 490 439 459 403 321 373 505 605 966 1243 1524 1642 1501 1271 1149 1318 1899 2160 1964 1952 1979 1942 1799 2085 2007 2406 2111 2140 2094 1641 1266 1305 1729 2089 1484 909 1129 1251 1545
296 30 68 74 282 823 969 698 790 800 669 629 391 324 302 462 527 760 1130 1465 1432 1724 1373 1187 1321 1003 1375 2247 2130 1979 1979 1789 1873 2090 2051 2010 2001 1897 2002 1892 1812 1172 968 1427 1233 1469 1469 1679 1748
36 117 209 130 273 1022 852 913 1060 653 511 841 824 261 218 411 787 1108 1157 1332 1242 1104 1059 545 928 1668 2293 2192 2150 2143 1914 1787 2307 1622 1955 1892 1028 1325 1076 1588 1576 1521 1618 1538 1434 1519 1821 1538 1329
23 185 186 150 511 1072 975 1147 997 855 988 1059 982 653 424 794 1120 1224 1104 906 759 386 648 551 1776 2166 2002 1645 1935 1982 1585 1301 2085 1795 1542 762 504 603 355 584 1319 1255 1231 1447 1395 1343 1207 1009 736
23 120 29 263 1007 1245 1199 937 920 837 816 872 831 809 814 1007 1171 1228 936 913 297 148 402 1313 1926 2078 1796 1776 2136 2110 1492 1377 1699 888 665 424 107 28 32 162 903 1217 782 916 1084 1046 908 1141 1310
46 28 143 1219 1256 1196 1108 842 912 774 679 557 930 796 936 1150 1375 1285 1165 1172 891 376 293 937 1595 2088 2115 2286 2100 2372 2443 2162 1767 1376 683 216 53 12 21 14 185 547 443 448 410 267 321 252 140
40 43 516 1132 1139 1246 957 1029 775 736 774 942 985 963 1028 1098 1213 1252 1218 1220 1195 850 423 980 1464 1694 1705 939 383 1456 2050 2076 1679 1436 669 122 83 40 12 5 15 26 205 223 250 109 79 57 109
46 301 798 1086 1234 1221 723 944 465 820 691 922 963 944 1007 1050 1119 1147 1127 1209 1142 827 502 467 963 1359 1106 1158 317 920 1306 1236 1208 1177 1193 157 133 68 30 59 36 34 0 10 38 47 62 161 339
48 393 707 1160 1214 1225 1067 763 403 908 667 739 805 838 834 899 910 953 929 999 1066 1040 892 1080 1007 1037 1445 1518 1129 1310 1297 1205 1148 1213 1075 928 870 602 91 47 21 30 94 63 84 159 234 407 537
41 168 266 689 1049 1142 402 549 860 977 839 718 669 715 726 733 690 721 666 589 564 744 894 1071 1009 1018 1208 1346 1523 1425 1384 1069 689 688 457 304 348 449 503 319 162 82 45 93 64 164 210 180 242
29 169 146 281 711 930 903 542 767 917 901 826 882 767 769 821 872 863 721 567 508 460 574 831 1033 1112 1376 1620 1618 1473 1334 877 263 179 157 236 313 396 477 482 557 304 305 381 586 310 339 219 321
3 0 0 4 326 700 981 604 985 1020 883 919 995 1091 1094 1068 1055 1057 1091 972 804 618 444 462 616 1074 1361 1498 1611 1338 730 872 342 312 244 171 274 300 419 444 410 594 540 586 552 586 633 901 793
0 0 0 0 0 457 742 762 1114 1013 987 949 1054 1096 1046 1116 1117 1110 1170 1149 980 869 781 820 731 971 1150 1157 1185 1233 1193 1290 662 330 365 498 450 201 237 229 479 663 484 619 795 819 665 301 485
0 0 0 0 6 155 422 671 780 1120 1089 976 936 1073 1121 1130 1192 1087 919 1036 1076 1134 937 953 1057 1104 1146 1080 1287 1314 1426 1363 1477 1177 1027 783 816 591 808 356 588 460 363 512 840 675 530 522 538
0 1 0 0 54 103 345 444 716 1015 1203 1086 1030 1046 1103 1139 1050 1114 741 782 799 920 989 937 1106 1115 1124 1165 1383 1435 1518 1785 2068 1582 1023 1221 1125 1238 1165 1010 1003 793 478 189 259 464 433 624 914
0 0 4 21 2 0 36 208 194 883 1180 1215 1122 1063 960 887 972 1177 735 931 817 698 728 976 908 906 864 972 1207 1307 1491 2036 2343 1955 2351 3090 1614 1280 1170 1256 1165 1101 851 442 507 428 787 646 1266
0 0 5 23 8 0 73 112 115 308 886 1148 1144 1077 838 1141 1076 1070 523 645 1211 1124 1021 1013 1523 1484 1164 936 1102 1039 1101 1708 1988 2728 2406 2504 2132 1668 1891 1847 1277 1644 1130 1052 949 716 1059 891 1136
0 2 19 6 3 13 0 89 29 774 782 608 896 873 921 1057 1055 483 544 730 1166 712 748 974 1408 711 629 567 363 153 307 1140 2248 2517 2486 2045 1723 1524 1563 1911 2088 1624 1750 1392 1402 1235 1026 1287 1317
0 1 19 7 9 9 0 26 69 270 191 375 411 552 1016 1007 804 661 418 472 719 419 481 427 262 268 400 338 196 66 72 857 1351 1037 982 747 576 585 626 898 1296 1675 1976 1900 1766 1381 1299 1640 925
0 0 15 8 5 2 0 165 231 410 752 804 991 631 963 991 787 579 499 499 728 331 354 316 285 160 31 175 52 32 67 299 606 373 370 335 327 344 338 490 480 424 566 886 1543 1746 1635 1811 1808
0 0 11 12 0 1 90 295 447 442 780 1010 908 781 968 876 736 584 517 506 404 604 507 511 235 349 282 180 270 303 358 564 443 291 265 310 294 287 304 343 358 418 436 453 639 846 1279 1252 1654
0 0 24 20 17 15 180 417 339 724 704 1014 1068 910 724 651 615 636 814 992 357 230 240 152 303 192 77 101 146 229 235 259 169 121 137 104 60 19 16 0 0 106 277 379 482 517 542 612 875
0 0 14 6 13 22 59 278 440 551 718 1069 1062 1000 957 742 684 634 595 438 332 176 212 223 82 39 3 41 29 7 17 45 21 15 66 62 55 55 0 0 0 0 0 1 0 27 294 541 507
0 0 0 4 12 37 124 73 221 434 727 1044 1030 1091 1127 1033 1045 608 377 333 297 184 229 120 35 8 5 11 13 51 68 43 54 115 115 80 3 0 3 4 2 1 3 5 4 2 3 1 0

GFSSGP_con_mucape_285.txt.gz
CAPE
1236 1626 2230 2241 2193 241 234 161 346 320 535 527 524 554 849 817 1018 841 48 186 150 244 358 825 1895 1846 1939 2153 2160 1965 1907 1423 1614 1888 2091 1891 1893 1785 2148 1930 2000 1967 2077 2178 2204 2229 2351 2377 2218
2479 2255 2573 2858 1082 416 349 291 422 497 626 608 617 641 863 977 997 759 247 180 250 368 768 743 2123 2166 1939 2134 2175 2194 1668 1633 1910 2033 2012 2073 1959 2037 1860 1882 2134 2099 2003 2057 2077 2186 2485 2339 2272
3038 2434 3052 322 512 589 562 375 424 512 683 736 694 781 976 889 954 883 530 371 578 869 1279 1430 2064 2401 1869 1931 2044 2009 1920 1894 2022 2020 2143 1990 2001 1890 2040 2075 2102 2039 2144 2049 1926 2276 2026 2129 2248
3211 3601 1952 500 517 590 596 530 454 569 726 740 869 1001 1007 963 1203 1042 1083 917 1049 1161 1240 1533 2081 1915 1873 1941 1998 1954 1908 1938 1888 1861 1937 1875 1964 1951 2119 1988 2089 1988 2052 2016 2000 1973 2002 1896 1865
2992 1885 343 475 469 489 616 609 562 561 630 734 936 1119 1053 1025 1209 1425 1372 950 1217 1316 1313 1613 2766 2424 1890 1939 1861 2054 1965 2039 2228 2196 1977 2014 1858 1963 2013 1868 1863 1828 1955 1821 1928 2095 2002 1736 1870
1946 144 345 509 556 598 677 642 471 634 697 922 1024 1252 1031 1215 1174 1362 1399 1389 1288 1205 945 1461 2384 2445 2433 2060 1916 1970 1903 1957 1801 1964 1710 1869 1389 1291 1544 1738 1666 1609 1870 1878 1944 1818 1796 1709 1763
483 150 233 209 513 730 697 658 459 595 710 931 1016 1270 1215 1011 1139 1106 1284 1279 1221 1047 719 735 1015 2009 2125 1962 1978 1932 1958 2065 1887 1832 1830 1641 1154 1344 1050 1094 1041 1383 1652 1670 1732 1907 1788 1656 1502
782 89 74 157 422 809 659 732 844 517 804 762 883 1084 1294 1090 984 1142 1296 1264 1379 1290 934 798 755 839 1233 1282 1786 1719 1723 1748 1570 1854 1834 1384 1205 1128 1084 736 973 1252 1261 1531 1185 1353 1416 1403 1594
369 189 366 264 418 730 813 866 765 579 697 842 863 949 1153 1098 1285 1344 1319 1541 1323 1114 517 473 442 459 415 1106 1729 1861 1817 1534 1759 1587 2124 1555 957 112 84 133 578 757 1066 1489 1192 1071 1246 1519 1651
78 259 489 419 577 662 647 764 721 771 797 845 729 988 1005 903 983 1111 1083 1153 985 672 314 417 344 288 586 1156 2521 1569 1651 931 1297 1798 1782 1133 787 603 540 308 589 330 247 801 1164 1148 1597 1369 241
77 217 547 661 740 766 604 596 699 659 782 806 789 961 861 871 886 929 877 617 342 354 228 210 444 793 1360 2032 889 659 1169 692 1865 1481 952 413 522 667 157 153 197 443 471 254 852 1070 642 161 172
85 352 514 780 724 568 607 235 228 549 492 767 770 832 870 862 795 634 464 361 105 76 139 244 700 1004 684 1798 964 1199 397 1244 1487 1309 1090 1068 288 225 251 146 60 64 191 346 441 210 556 1140 479
97 530 561 707 667 626 427 312 370 509 681 819 708 728 842 796 779 633 217 66 64 17 126 486 811 1474 1809 1754 869 1023 1054 311 1112 1255 993 375 579 590 388 978 159 53 0 339 509 465 804 383 114
244 472 663 815 801 631 601 553 420 560 692 798 758 940 934 867 882 829 660 719 502 172 91 263 975 2129 1352 1255 1159 984 1162 492 814 1419 1412 1465 1044 978 771 769 721 733 216 78 8 1022 902 643 233
228 424 659 757 864 740 890 500 574 610 691 813 913 945 951 964 887 921 941 915 883 850 610 541 1027 1536 1578 1290 1272 1814 1875 2091 1568 1592 709 1082 979 1137 907 1540 2002 878 333 85 1 529 537 373 91
150 203 507 556 875 1003 576 998 669 725 715 782 917 956 892 878 857 801 814 863 864 983 1075 892 819 1087 1733 1791 1841 1961 2448 1911 1883 1458 1353 1260 1367 1256 1631 1699 1977 1225 1334 308 87 35 92 166 113
62 0 232 431 678 900 959 1281 973 799 767 666 708 833 886 911 893 878 827 789 902 940 1111 1207 1317 1670 2048 1994 2836 2322 2182 2014 974 45 85 253 869 1071 1528 1443 1872 1736 2222 1487 1089 616 215 435 67
129 243 93 138 219 487 952 1126 1302 955 811 755 614 626 750 769 847 890 832 753 711 833 1173 1479 1574 1847 1908 2753 2889 2282 2074 2973 1785 946 495 573 644 432 586 233 963 1518 1481 1390 1532 1652 1428 1168 1053
173 148 129 111 1 103 370 582 1281 1191 1012 870 721 589 634 714 729 787 810 681 772 856 1058 1455 1563 2173 2328 2329 2511 3246 3182 2035 2273 1861 1597 1422 990 1065 1257 527 445 721 1252 1706 1744 1873 1792 1947 1662
64 174 190 95 23 151 295 321 505 1415 1206 1069 918 608 621 716 759 890 895 999 889 1173 1346 1671 1932 2206 2528 2279 2297 2108 2462 1522 1656 1893 2088 2130 1987 2168 2131 1465 2056 2237 2313 1817 1434 1361 2013 2004 2009
121 203 231 90 61 127 383 191 27 737 1376 1190 1122 908 535 794 955 1040 861 1084 1151 1433 1637 2163 2596 2956 2768 2334 2475 2437 2227 2255 1857 2375 2310 2402 2186 2328 2611 2505 2825 2657 2417 2134 1431 809 515 372 1896
132 120 55 29 130 214 192 293 360 132 1428 1376 1239 1142 919 709 1027 853 1394 1266 647 1487 1882 2527 2960 3212 2857 2693 2700 2917 2389 2442 2294 2284 2143 3204 2727 2545 2394 2227 2233 2249 2180 2248 1767 1552 944 1574 1546
130 60 20 19 95 149 259 304 380 330 1106 1396 1386 1257 1111 972 1100 1092 1380 456 955 1270 1880 2593 2911 2926 3088 3053 2327 2435 2176 2708 3454 2302 2682 2797 2622 2422 2335 2785 2465 2777 2193 2049 2065 1879 1840 1923 1567
28 2 8 0 83 196 133 279 292 178 490 859 1338 1367 1238 1181 1260 1457 1257 897 1048 1534 2021 2377 2537 2190 2376 2496 1698 1552 1805 2268 2330 2555 1390 1605 1296 1775 1884 1398 2172 2284 2510 2492 2524 2326 1842 1918 1821
3 4 17 50 133 172 123 99 240 434 632 659 775 1431 1385 1402 1535 1944 1711 1644 1622 1827 2075 2293 2309 2378 2149 890 835 1009 1742 1816 1980 1639 1426 1325 862 712 608 584 841 852 1267 1450 1879 2019 1979 2001 1612
0 0 7 78 126 270 28 75 367 526 1063 944 874 1293 1343 1515 1818 2118 1928 1781 1572 1895 2080 2127 2233 1670 1268 1412 1231 999 905 1000 858 961 794 746 561 386 185 120 159 190 218 367 790 1272 1486 1380 1494
0 0 0 1 43 126 224 23 48 794 1224 1259 1264 1178 1488 1592 2027 2126 1717 1690 1557 1600 1640 1769 1830 1692 1329 1323 1239 967 725 726 546 374 327 150 36 0 0 0 1 0 0 21 86 168 410 469 738
0 0 0 0 25 111 196 165 284 387 1072 1507 1364 1498 1812 1956 2063 1870 1638 1816 1692 1941 1800 1663 1683 1245 1021 861 969 644 468 275 118 37 0 0 0 0 0 1 1 2 4 6 6 13 99 20 39
0 0 0 1 12 61 139 268 149 72 796 1545 1641 1811 2009 2033 1941 1753 1791 1784 1743 1833 1669 1222 969 780 627 449 229 101 13 0 0 0 0 0 0 3 8 10 9 9 19 17 22 16 16 13 16
0 0 0 0 0 136 264 197 14 34 333 1445 1665 2005 2133 2015 1892 1949 2050 1738 1526 1622 1203 1311 646 463 317 171 36 0 0 0 0 0 0 1 5 10 13 18 18 21 14 16 14 9 15 21 25

GFSSGP_con_mucape_291.txt.gz
CAPE
1548 1695 1600 1631 1619 95 180 257 289 352 588 518 113 30 18 0 0 0 10 5 23 224 526 1144 2517 2275 2103 2062 1931 1411 1408 1817 1818 1874 1633 1572 1820 1683 1839 1808 1835 2139 1972 1800 2011 1987 2263 2319 2249
2071 2030 1970 2624 247 24 232 269 349 434 583 334 119 99 27 0 0 21 9 87 136 327 564 1139 2568 2625 2246 2045 2098 1778 1716 1824 1821 1948 1848 1723 1698 1585 1786 1808 1638 1869 1907 2014 2094 2249 2099 2043 2053
1860 2064 2464 1921 130 78 212 429 497 610 794 740 597 384 168 6 0 1 6 35 163 337 482 1395 2702 2612 2264 1805 1994 1923 1890 1875 1649 1897 1869 1816 1763 1686 1923 1731 1678 1730 1772 2099 2239 2240 2238 2234 2201
2516 2412 2705 797 283 229 263 393 413 770 569 655 635 507 284 0 3 33 28 77 188 538 844 2151 2391 2247 2364 2235 2212 1879 1865 1950 1871 1785 1668 1190 1851 1763 1822 1621 1665 1671 1737 2127 2007 1898 2038 1809 1872
2510 2580 1376 141 152 54 309 352 722 744 674 713 733 507 21 17 37 35 49 246 489 824 1081 1625 2631 2509 2418 2252 2078 1964 1814 1735 1704 1656 1512 1421 1830 1626 1587 1580 1678 1627 1762 1807 1950 1694 1711 1765 1747
2829 2243 276 165 261 467 374 136 703 783 846 1031 899 667 576 208 47 118 410 533 865 1042 1116 1439 1964 2480 2551 1997 2121 2195 1737 1682 2000 1539 1445 1318 903 1492 1550 1619 1653 1571 1579 1962 1793 1697 1550 1694 1474
2749 981 249 252 349 342 504 351 479 451 159 661 886 911 806 543 27 321 568 741 903 1101 1119 1377 1494 1602 2032 2688 1982 1822 1812 1672 2063 1582 1479 1798 874 1216 1569 1224 1432 1636 1602 1746 1561 1635 1497 1447 1208
233 207 311 291 378 337 421 374 642 315 301 614 672 777 711 525 401 668 760 628 709 861 931 1210 1679 1905 1824 1960 1672 1838 1883 1675 1605 1562 1272 1737 1158 336 629 1078 1110 1244 1351 1184 1582 1554 1588 1438 1415
202 226 237 244 537 656 375 194 110 639 596 646 706 703 852 624 709 834 892 354 474 686 788 743 1464 1704 1476 1560 1621 2209 1952 1707 1839 1561 1581 1890 707 295 333 347 835 691 1002 1246 1343 1404 1576 1448 1426
188 300 301 288 339 438 289 337 361 319 642 648 645 899 986 887 962 905 826 745 468 569 561 602 1138 1314 1146 1112 1106 1236 1145 1212 1517 1132 1464 763 391 80 106 146 584 959 1266 1377 1364 1098 940 936 959
211 264 255 346 435 524 496 496 354 403 745 642 610 681 789 819 797 817 770 992 131 194 270 412 412 473 852 584 227 521 1155 995 1050 1194 995 640 703 267 23 14 82 157 156 200 333 959 805 781 643
323 333 355 466 368 43 23 541 418 316 603 569 487 536 618 670 745 880 756 757 746 274 221 337 558 733 688 342 387 287 538 774 865 790 857 677 408 206 118 52 76 104 124 57 50 110 162 75 344
52 254 341 495 196 93 147 116 248 453 592 456 399 625 680 636 653 618 744 418 174 483 532 438 346 340 325 203 553 525 587 916 534 804 839 508 371 94 66 74 69 83 77 63 105 100 90 33 14
167 366 393 386 390 432 325 361 346 456 496 492 377 288 480 590 568 527 350 214 84 77 384 1384 848 769 601 710 462 809 920 721 348 736 540 441 234 103 127 104 46 66 87 73 86 76 59 54 55
137 174 395 467 625 513 541 538 454 453 516 437 394 356 263 283 288 242 125 29 55 65 661 993 1010 741 663 497 831 614 859 821 786 497 642 471 324 207 239 225 249 167 226 143 53 37 27 175 212
101 55 51 137 423 283 273 511 490 486 495 459 433 371 288 315 294 155 85 234 215 84 498 938 1085 718 737 827 898 914 706 993 1039 1221 724 252 265 558 756 664 645 583 472 320 258 170 84 23 107
3 62 27 130 218 426 307 156 514 558 463 479 515 411 356 414 393 427 249 397 228 103 66 344 898 896 771 1033 1368 971 914 970 1080 900 345 201 280 640 884 864 821 795 559 588 531 371 257 143 96
5 32 104 127 270 514 618 796 858 552 535 571 616 533 416 439 473 373 506 487 328 242 392 517 921 1067 1158 910 784 1015 806 1361 44 213 264 201 407 664 206 355 242 638 863 886 813 696 584 414 283
2 3 42 16 108 348 658 437 94 965 564 579 644 633 526 453 436 293 416 549 532 344 934 781 1356 1466 1278 620 222 567 907 1308 1245 783 844 872 342 231 162 580 731 764 683 622 751 685 695 628 599
36 82 19 178 187 190 352 207 125 505 414 541 514 608 521 520 493 433 427 666 745 969 946 661 1031 1348 1016 818 966 1325 1342 1416 1547 1165 1425 1009 1196 1481 1202 1059 1106 1299 1283 1094 1016 1023 754 639 322
23 99 77 80 74 102 279 269 72 341 360 728 468 471 442 488 603 557 644 670 564 13 858 1168 1394 2019 1682 1399 1457 1270 1195 1308 1036 1309 1437 1377 1716 1839 1708 1354 1447 1537 1766 1568 1182 1106 961 573 432
62 27 41 138 74 90 75 169 277 158 392 906 541 469 426 507 605 608 584 540 485 354 473 337 307 1236 1916 1722 508 609 556 750 841 1134 700 1274 1613 1919 2144 1901 1973 1829 1658 1506 1199 1114 1131 1101 708
4 7 10 17 30 12 5 178 98 30 4 100 701 485 545 671 641 821 765 750 635 487 550 197 725 1160 1658 1593 1034 1173 876 663 716 627 267 240 1477 904 1501 1112 1393 1158 969 838 952 1071 1067 860 883
0 0 0 0 3 1 132 159 96 140 193 125 35 447 622 607 685 777 757 727 654 892 1304 636 877 1492 1838 1534 998 993 776 474 538 210 248 928 604 583 579 518 298 380 276 237 282 328 684 635 551
0 0 0 0 0 3 138 179 126 181 295 51 2 50 296 660 778 845 1005 926 778 965 1432 1485 2049 2049 1855 1575 617 315 13 1380 909 1005 687 602 526 657 580 356 10 0 0 0 0 0 236 161 143
0 0 0 0 0 23 169 99 151 104 147 181 282 3 358 520 812 970 1169 863 1481 2072 2358 2388 2089 1942 1650 1147 1098 1199 795 880 739 739 657 533 350 137 57 2 0 0 0 0 0 0 0 0 0
0 0 0 0 0 0 65 90 35 160 307 270 293 289 451 960 915 1186 1202 948 1652 2185 2252 1998 1844 1643 1308 1258 924 807 708 613 664 266 213 285 233 54 0 0 0 0 0 0 0 0 0 0 0
0 0 0 0 0 0 0 67 89 192 197 14 507 607 663 1184 1167 1151 1172 1924 2167 2153 1992 1764 1407 1445 1300 1063 765 580 452 304 232 109 94 42 0 0 0 0 0 0 0 0 0 0 0 0 0
0 0 0 0 0 0 0 36 257 146 74 227 554 1199 1315 1549 1503 1700 1944 1815 1840 1881 1756 1457 1380 1198 1246 1623 928 661 248 16 0 0 0 0 0 0 0 0 0 0 0 0 0 0 0 0 8
0 0 0 0 0 0 0 34 287 158 87 517 683 1489 1666 1919 1863 1887 1866 1759 1557 1450 1298 1190 1486 1204 883 677 201 19 0 0 0 0 0 0 0 0 0 2 0 0 0 0 0 0 0 0 1